sat.trackr.live / text

‹ back to catalog

STARLINK-30400

NORAD 57937 · 2023-148C

PAYLOAD ACTIVE UNKNOWN

§ Identity

Operator
Country
US
Launch date
2023-09-25
Launch site
AFWTR
Launch vehicle
Mass (kg)
RCS (m²)

Purposes: comms

External: N2YO · Heavens-Above · Gunter

§ Orbital elements

Epoch: 2026-09-19T11:44:14.871264Z

Period
93.85 min
Inclination
53.1605°
Eccentricity
0.0001300
Mean motion
15.34387655 rev/d
Perigee alt
461.9 km
Apogee alt
463.6 km
Semi-major
6,840.9 km
B*
3.4314e-6
RAAN
200.5501°
Arg perigee
90.1278°
Mean anomaly
269.9873°
Rev number
16,814

§ Raw data

STARLINK-304001 57937U 23148C   26262.48906101 -.00000260  00000+0  34314-5 0  99942 57937  53.1605 200.5501 0001300  90.1278 269.9873 15.34387655168148

JSON: /api/v1/satellites/57937 · /tle

For live sub-satellite position, see the globe view (requires WebGL).

§ Visibility from observer

Set your observer location to see the next 7 days of passes ≥ 10°. The values pass through the URL so the page stays shareable.

No JS? Fill the form by hand. The geolocation button needs JavaScript.